1st Responders/1st Detectors/Storm Spotters Weather Summary for Martin County, KY

Forecast Maps


Reg. NEXRAD Animation


National Fire Danger: Day 1 & 2 Map

Current NWS Watch/Warnings

SPC Convective Day 1 Outlook


Day 2 Outlook

(Click images to enlarge|Page will refresh every 5 minutes)
UK Ag. Weather Center Desktop Severe Weather Service[HERE]
Martin County, KY Hazardous Weather Outlook Webcast
(9 AM to 9 PM Mon-Fri)
[Fast]
[Dial-up]


UKAWC 1st Detectors/1st Responders Precision Weather Forecast For MARTIN County, Kentucky
(based on the NWS County Digital Forecast)

ISSUED AT 10:00 UTC ON THURSDAY NOV 22 2018
DAY THURSDAY
EDT 3HR 7A 8A 9A 10A 11A NOON 1P 2P 3P 4P 5P 6P 7P
MAX/MIN -- 25° -- -- -- -- -- -- -- -- -- -- 45°
TEMP 27° 25° 27° 31° 34° 38° 41° 45° 45° 45° 45° 43° 40°
SKY COVER 30% 28% 29% 30% 31% 28% 26% 24% 20% 17% 13% 11% 8%
Clouds
DEW PT 27° 25° 27° 31° 31° 32° 32° 32° 32° 32° 32° 32° 31°
RH 100% 99% 99% 99% 91% 82% 69% 62% 60% 60% 63% 67% 72%
POP 12HR -- 2% -- -- -- -- -- -- -- -- -- -- --
RAIN/SNOW (liq.equ) -- 0.00in -- -- -- -- -- 0.00in -- -- -- -- --
SNOWFALL -- 0in -- -- -- -- -- 0in -- -- -- -- --
WIND SPEED(MPH) 0 1 1 2 2 2 2 2 2 2 2 2 2
WIND Gust(MPH) 1 2 2 5 5 5 5 5 5 5 5 5 5
WIND DIR NE NE NE NE NE NE NE NE NE NE NE NE NE
DEW Freeze Freeze Freeze Frost Frost Frost Lgt Dew -- -- -- -- -- Frost
HeatIndex 27 25 27 27 31 35 40 43 45 45 43 41 37
Snow Showers -- -- -- -- -- -- -- -- -- -- -- -- --
Rain -- -- -- -- -- -- -- -- -- -- -- -- --
Rain Showers -- -- -- -- -- -- -- -- -- -- -- -- --
Fog Patchy Patchy Patchy -- -- -- -- -- -- -- -- -- --
WIND CHILL -- -- -- -- -- -- -- -- -- -- -- -- --
SPRAY COND
DRY COND
LIVESTOCK COLDSTRESS



DAY FRIDAY SATURDAY SUNDAY MONDAY TUESDAY WEDNESDAY
EDT 6HR 8P 9P 10P 11P MIDN 1A 2A 3A 4A 5A 6A 7A 8A 9A 10A 11A NOON 1P 2P 3P 4P 5P 6P 8P 11P 2A 5A 8A 11A 2P 5P 8P 2A 8A 2P 8P 2A 8A 2P 8P 2A 8A 2P 8P 2A 8A 2P 8P
MAX/MIN -- -- -- -- -- -- -- -- -- -- -- -- 29° -- -- -- -- -- -- -- -- -- 54° -- -- -- -- 45° -- -- 56° -- -- 38° 61° -- -- 38° 47° -- -- 31° 41° -- -- 27° 41° --
TEMP 36° 34° 34° 32° 32° 31° 31° 29° 29° 29° 29° 29° 29° 31° 34° 38° 41° 47° 50° 52° 54° 52° 52° 47° 45° 45° 45° 45° 49° 54° 56° 50° 41° 38° 59° 52° 47° 40° 45° 43° 36° 31° 40° 34° 31° 27° 40° 34°
SKY COVER 5% 4% 3% 3% 3% 3% 4% 4% 4% 5% 4% 4% 4% 4% 4% 3% 4% 7% 8% 19% 39% 50% 57% 77% 83% 90% 99% 98% 94% 95% 80% 58% 44% 40% 19% 51% 74% 85% 90% 88% 85% 72% 56% 70% 61% 54% 58% 54%
Clouds
DEW PT 31° 31° 31° 31° 29° 29° 31° 29° 29° 29° 29° 29° 29° 31° 31° 32° 34° 34° 36° 36° 34° 34° 34° 34° 34° 36° 38° 41° 45° 47° 47° 45° 41° 38° 45° 45° 43° 36° 36° 36° 34° 31° 31° 29° 29° 25° 27° 27°
RH 81% 85% 88% 92% 88% 92% 99% 100% 99% 100% 100% 100% 100% 99% 92% 82% 73% 62% 55% 52% 48% 50% 52% 60% 65% 70% 76% 89% 89% 77% 74% 83% 99% 99% 57% 74% 89% 89% 70% 73% 88% 95% 66% 78% 88% 96% 57% 75%
POP 12HR 1% -- -- -- -- -- -- -- -- -- -- -- 1% -- -- -- -- -- -- -- -- -- -- 2% -- -- -- 91% -- -- -- 81% -- 12% -- 21% -- 55% -- 36% -- 31% -- 24% -- 21% -- 11%
RAIN/SNOW (liq.equ) 0.00in -- -- -- -- -- 0.00in -- -- -- -- -- 0.00in -- -- -- -- -- 0.00in -- -- -- -- 0.00in -- 0.01in -- 0.36in -- 0.37in -- 0.01in -- -- -- -- -- -- -- -- -- -- -- -- -- -- -- --
SNOWFALL 0in -- -- -- -- -- 0in -- -- -- -- -- 0in -- -- -- -- -- 0in -- -- -- -- 0in -- 0in -- 0in -- 0in -- 0in -- -- -- -- -- -- -- -- -- -- -- -- -- -- -- --
WIND SPEED(MPH) 2 2 2 0 0 0 0 0 0 0 0 0 2 5 6 6 6 6 6 6 6 6 6 6 7 8 7 7 6 7 7 2 2 2 6 6 8 9 10 8 7 7 7 6 6 6 7 5
WIND DIR NE NE E E E E E E E SE SE SE SE SE SE SE SE SE SE SE SE SE SE SE SE SE SE SE S SW SW SW SW S SE S SW SW W W W W W W W W W W
HeatIndex 34 32 31 32 32 31 31 29 29 29 29 29 26 26 28 33 38 47 50 52 54 52 52 47 40 40 45 41 49 54 56 50 40 35 59 52 47 33 45 38 31 25 35 29 26 20 36 31
Snow Showers -- -- -- -- -- -- -- -- -- -- -- -- -- -- -- -- -- -- -- -- -- -- -- -- -- -- -- -- -- -- -- -- -- -- -- -- -- -- -- -- -- Slight Chance -- Slight Chance -- -- -- --
Rain -- -- -- -- -- -- -- -- -- -- -- -- -- -- -- -- -- -- -- -- -- -- -- -- Slight Chance Chance Definite Definite Likely Chance Slight Chance -- -- -- -- -- -- -- -- -- -- -- -- -- -- -- -- --
Rain Showers -- -- -- -- -- -- -- -- -- -- -- -- -- -- -- -- -- -- -- -- -- -- -- -- -- -- -- -- -- -- -- -- -- -- -- Chance Chance Chance Chance Chance Chance -- Slight Chance Slight Chance -- -- -- --
Fog -- -- -- Patchy -- Patchy Patchy Patchy Areas of Areas of Areas of Areas of Patchy -- -- -- -- -- -- -- -- -- -- -- -- -- -- -- -- -- -- -- -- -- -- -- -- -- -- -- -- -- -- -- -- -- -- --
WIND CHILL -- -- -- -- -- -- -- -- -- -- -- -- -- 26° 29° 34° 37° -- -- -- -- -- -- -- 41° 41° 41° 41° -- -- -- -- -- -- -- -- -- 34° 40° 38° 30° 25° 35° 29° 25° 21° 35° 30°
SPRAY COND
DRY COND
LIVESTOCK COLDSTRESS

Click on individual weather variable above in left-hand column (ie., TEMP, RH, QPF 12HR) to view state forecast maps






NWS 48 Hr. Forecast Maps,

Regional Hourly Observations For MARTIN County, Kentucky
Issued at 500 AM EST THU NOV 22 2018
SOUTHEAST KENTUCKY
  
CITY           SKY/WX    TMP DP  RH WIND       PRES   REMARKS
JACKSON        FAIR      34  29  82 CALM      30.34S                  
LONDON         FAIR      29  27  92 CALM      30.35S                  
SOMERSET       FAIR      28  28 100 CALM      30.37S FOG              
MIDDLESBORO    CLOUDY    29  29 100 CALM      30.38S                  
MONTICELLO     FAIR      24  22  91 N8        30.37S WCI  15          


Current NOWCAST not available:
Nowcasts are not issued routinely during fair weather. Only when
precipitation or other significant weather is occuring in this county will these
forecasts be issued. Currently, there is no short term forecast in effect.


Fire Weather Forecast For MARTIN County, KY
Provided by the National Weather Service:

Issued at: Thu Nov 22 05:05:01 EST 2018

346 PM EST Wed Nov 21 2018

                      Tonight      Thanksgiving DayThu Night    Fri          

Cloud Cover           PCldy        MClear       Clear        MClear       
Chance precip (%)     0            0            0            0            
Precip type           None         None         None         None         
Temp (24H TREND)      24-32 (+3)   44-47 (+1)   27-35        55-56        
Rh % (24H TREND)      89-100 (+5)  59-64 (+8)   85-100       49-52        
20ftwnd-AM(mph)                    E 2-6                     SE 2-6       
20ftwnd-PM(mph)       Lgt/Var      Lgt/Var      Lgt/Var      SE 3-7       
Precip duration                                                           
Precip begin                                                              
Precip end                                                                
Precip amount         0.00         0.00         0.00         0.00         
LAL                   1            1            1            1            
Haines Index (MID)                 3                         4            
Mixing hgt(ft-AGL)                 2100                      1500         
Transport wnd (mph)                W  5                      S 17         
Vent rate (kt-ft)                  8446                      22248        
ADI Early             5 Very Poor  9 Poor       3 Very Poor  12 Poor      
ADI Late              4 Very Poor  13 Gen Poor  7 Poor       29 Fair      
Max LVORI Early       6            8            6            6            
Max LVORI Late        8            4            7            2            

REMARKS...RANGES OF MIN T EXCEEDING 8 DEGREES & RANGES OF MAX RH        
EXCEEDING 10% INDICATE THE LIKELIHOOD OF THERMAL BELTS. ADI IS        
ATMOSPHERIC DISPERSION INDEX BY LAVDAS. DISPERSION INDEX IS        
MAGNITUDE OF VENT RATE DIVIDED BY 1000.


SPC's Fire Weather Web Tool (Excellent!), SPC's Fire Weather Outlooks, NWS Fire Weather WEB, Fire Danger Class Map,
Keetch-Byram Drought Index, ROMAN Web, Haines Index ,
WFAS's 10-hr Dead Fuel Moist., WFAS's 100-hr Dead Fuel Moist., Probablity of Ignition, Visual blackness Map, Palmer Drought Index, HPC's Rainfall Forecast Maps


Hazardous Weather Outlook For MARTIN County, Kentucky
359 AM EST Thu Nov 22 2018

 DAY ONE  Today and Tonight.

No hazardous weather is expected at this time.

 DAYS TWO THROUGH SEVEN  Friday through Wednesday.

No hazardous weather is expected at this time. 

 SPOTTER INFORMATION STATEMENT  

Spotter activation is not anticipated.

Latest MARTIN County, Kentucky Watches, Warnings and Advisories.
Additional Drought Info.: UKAWC Drought Page, Kentucky Drought Watch


7-Day Forecast For MARTIN County, KY

TODAY
Sunny. Patchy valley fog early. Highs in the mid 40s. Light winds.

TONIGHT
Clear. Areas of valley fog. Lows in the lower 30s. Light winds.

FRIDAY
Sunny. Patchy valley fog early. Highs in the mid 50s. Light winds.

FRIDAY NIGHT
A chance of rain in the evening, then rain late. Lows in the mid 40s. Southeast winds around 10 mph. Chance of rain 90 percent.

SATURDAY
Rain in the morning, then a chance of rain in the afternoon. Highs in the mid 50s. Light winds. Chance of rain 80 percent.

SATURDAY NIGHT
Partly cloudy. Patchy valley fog. Lows in the lower 40s.

SUNDAY
Mostly sunny. Highs around 60.

SUNDAY NIGHT
Mostly cloudy with showers likely. Lows in the lower 40s. Chance of rain 60 percent.

MONDAY
Mostly cloudy. Highs in the lower 40s.

MONDAY NIGHT
Cold. Mostly cloudy. Lows in the upper 20s.

TUESDAY
Partly sunny. Highs in the upper 30s.

TUESDAY NIGHT
Cold. Partly cloudy. Lows in the mid 20s.

WEDNESDAY
Partly sunny. Highs around 40.

Ag Weather Center, Department of Biosystems & Agricultural Engineering, University of Kentucky